This is the latest recevied weather packets stored in our database for station/object OE3PDB-4. If no packets are shown the sender has not sent any weather packets the latest 10 day(s).
| Time | Temp. | Humidity | Pressure | Rain* | Wind** | Luminosity | Snow |
|---|---|---|---|---|---|---|---|
| 1777451413 | 13.89° C | 34% | 1023.2 hPa | 0 mm | - | - | - |
| 1777450813 | 13.33° C | 35% | 1023.3 hPa | 0 mm | - | - | - |
| 1777450213 | 12.78° C | 35% | 1023.3 hPa | 0 mm | - | - | - |
| 1777449613 | 12.78° C | 37% | 1023.3 hPa | 0 mm | - | - | - |
| 1777448413 | 12.22° C | 37% | 1023.3 hPa | 0 mm | - | - | - |
| 1777447813 | 12.22° C | 37% | 1023.3 hPa | 0 mm | - | - | - |
| 1777447213 | 12.22° C | 38% | 1023.3 hPa | 0 mm | - | - | - |
| 1777446613 | 12.22° C | 40% | 1023.2 hPa | 0 mm | - | - | - |
| 1777446013 | 10.56° C | 41% | 1023.1 hPa | 0 mm | - | - | - |
| 1777444813 | 10° C | 43% | 1023.2 hPa | 0 mm | - | - | - |
| 1777444213 | 9.44° C | 43% | 1023.1 hPa | 0 mm | - | - | - |
| 1777443613 | 9.44° C | 44% | 1023.2 hPa | 0 mm | - | - | - |
| 1777443013 | 9.44° C | 45% | 1023.1 hPa | 0 mm | - | - | - |
| 1777442413 | 8.89° C | 45% | 1023 hPa | 0 mm | - | - | - |
| 1777441813 | 8.89° C | 47% | 1023.2 hPa | 0 mm | - | - | - |
| 1777441213 | 8.89° C | 49% | 1023 hPa | 0 mm | - | - | - |
| 1777440613 | 8.33° C | 51% | 1023.1 hPa | 0 mm | - | - | - |
| 1777440013 | 7.78° C | 52% | 1023.1 hPa | 0 mm | - | - | - |
| 1777439413 | 7.78° C | 52% | 1023.1 hPa | 0 mm | - | - | - |
| 1777438813 | 7.78° C | 52% | 1022.9 hPa | 0 mm | - | - | - |
| 1777438213 | 7.22° C | 53% | 1022.9 hPa | 0 mm | - | - | - |
| 1777437613 | 7.22° C | 53% | 1022.9 hPa | 0 mm | - | - | - |
| 1777437013 | 7.22° C | 53% | 1022.8 hPa | 0 mm | - | - | - |
| 1777435814 | 7.22° C | 53% | 1022.6 hPa | 0 mm | - | - | - |
| 1777434614 | 6.67° C | 52% | 1022.3 hPa | 0 mm | - | - | - |
* Rain latest hour (hover to see other rain measurements)
** Current wind speed in m/s (hover to see current wind gust speed)